Location: Armidale
(30.5016°S, 151.6662°E)
Time: 02:00:20
(UTC+10:00)

Hubble Space Telescope - Pass Details

Date: 09 August 2020
Orbit: 536 x 540 km, 28.5° (Epoch: 28 September)

Event Time Altitude Azimuth Distance (km) Brightness Sun altitude
Rises 20:05:55 0° 268° (W) 2,684 5.4 -35.0°
Reaches altitude 10° 20:08:14 10° 274° (W) 1,791 4.2 -35.5°
Enters shadow 20:08:45 13° 276° (W) 1,598 3.9 -35.6°
